[Iaude] MPEC O106: 2024 OA1 [a=1.18,e=0.05,i=9.7,H=24.7]
    mpec at cfa.harvard.edu 
    mpec at cfa.harvard.edu
       
    Tue Jul 30 20:57:08 EDT 2024
    
    
  
M.P.E.C. 2024-O106                                Issued 2024 July 31, 00:55 UT
     The Minor Planet Electronic Circulars contain information on unusual
         minor planets, routine data on comets and natural satellites,
         and occasional editorial announcements.  They are published
    on behalf of Division F of the International Astronomical Union by the
          Minor Planet Center, Smithsonian Astrophysical Observatory,
                          Cambridge, MA 02138, U.S.A.
			  
             Prepared using the Tamkin Foundation Computer Network
                              MPC at CFA.HARVARD.EDU
            URL https://www.minorplanetcenter.net/    ISSN 1523-6714
                                    2024 OA1                                    
Observations:
     K24O01A* C2024 07 27.44668621 48 39.162-23 59 14.20         21.10wXEO106F51
     K24O01A  C2024 07 27.46397621 48 35.821-23 58 01.28         21.22wXEO106F52
     K24O01A  C2024 07 27.47036521 48 34.603-23 57 35.00         21.27wXEO106F51
     K24O01A  C2024 07 27.47579221 48 33.553-23 57 11.97         21.39wXEO106F52
     K24O01A  C2024 07 27.48218821 48 32.304-23 56 44.74         21.12wXEO106F51
     K24O01A  C2024 07 27.48760521 48 31.261-23 56 21.57         21.19wXEO106F52
     K24O01A  C2024 07 27.53814621 48 21.547-23 52 47.48         20.48GVEO106F51
     K24O01A 7C2024 07 27.99052821 47 11.973-23 20 45.08               VEO106Z84
     K24O01A  C2024 07 28.05975821 47 03.22 -23 14 14.4                WEO106X09
     K24O01A 7C2024 07 28.06003321 46 58.779-23 15 48.56               VEO106Z84
     K24O01A  C2024 07 28.07138921 47 01.30 -23 13 26.2                WEO106X09
     K24O01A |C2024 07 28.33483021 46 11.490-22 54 40.90         20.6 GVEO106807
     K24O01A |C2024 07 28.33923021 46 10.570-22 54 22.00         21.0 GVEO106807
     K24O01A |C2024 07 28.34357021 46 09.750-22 54 02.60         20.5 GVEO106807
     K24O01A 3C2024 07 28.53680421 45 39.099-22 41 07.92         21.10GVEO106T14
     K24O01A 3C2024 07 28.53778321 45 38.905-22 41 03.60         21.02GVEO106T14
     K24O01A 3C2024 07 28.53876021 45 38.713-22 40 59.35         20.88GVEO106T14
     K24O01A  C2024 07 30.48938921 40 13.093-20 16 10.53         20.66wXEO106F51
     K24O01A  C2024 07 30.50920521 40 09.083-20 14 39.87         20.98wXEO106F51
     K24O01A  C2024 07 30.51912621 40 07.036-20 13 54.70         20.73wXEO106F51
Observer details:
807 Cerro Tololo Observatory, La Serena.  Observers T. Linder, R. Holmes.
    0.61-m f/6.8 Ritchey-Chretien + CCD.
F51 Pan-STARRS 1, Haleakala.  Observers J. Herman, T. Lowe, P. Minguez, A.
    Schultz, I. Smith.  Measurers K. Chambers, T. de Boer, J. Fairlamb, H.
    Gao, M. Huber, C.-C. Lin, E. Magnier, Y. Ramanjooloo, R. Wainscoat, R.
    Weryk.  1.8-m Ritchey-Chretien + CCD.
F52 Pan-STARRS 2, Haleakala.  Observers J. Herman, T. Lowe, P. Minguez, A.
    Schultz, I. Smith.  Measurers K. Chambers, T. de Boer, J. Fairlamb, H.
    Gao, M. Huber, C.-C. Lin, E. Magnier, Y. Ramanjooloo, R. Wainscoat, R.
    Weryk.  1.8-m Ritchey-Chretien + CCD.
T14 Canada-France-Hawaii Telescope, Maunakea.  Observers R. Wainscoat, J.
    Silva, H. Flewelling.  Measurers R. Weryk, R. Wainscoat.  3.6-m f/4.1
    reflector + CCD.
X09 Deep Random Survey, Rio Hurtado.  Observers A. Schnabel, D. Ruhela.
    Measurer S. Deen.  0.43-m reflector + CMOS.
Z84 Calar Alto-Schmidt.  Observers F. Ocana, M. Micheli, R. Kresken, L.
    Conversi.  Measurers F. Ocana, M. Micheli.  0.8-m f/3 Schmidt + CCD.
Orbital elements:
2024 OA1                                                 Earth MOID = 0.1072 AU
Epoch 2024 Oct. 17.0 TT = JDT 2460600.5                 Veres                   
M  40.68113              (2000.0)            P               Q                  
n   0.76658935     Peri.   18.26314     +0.86624506     +0.48375092             
a   1.1823903      Node   312.14516     -0.47682695     +0.72581336             
e   0.0540969      Incl.    9.69939     -0.14918296     +0.48906033             
P   1.29           H   24.70          G   0.15           U   7                  
Residuals in seconds of arc
240727 F51  0.1+  0.2-    240727 Z84  0.1+  0.1+    240728 T14  0.1-  0.1-
240727 F52  0.1-  0.2+    240728 X09  0.8-  1.0+    240728 T14  0.1-  0.1-
240727 F51 (0.1+  0.4-)   240728 Z84  0.1-  0.3+    240728 T14  0.1-  0.2-
240727 F52  0.1+  0.3-    240728 X09  0.7+  0.9+    240730 F51  0.1-  0.0
240727 F51  0.1-  0.1-    240728 807  0.6+  0.2+    240730 F51  0.3+  0.1+
240727 F52  0.0   0.2+    240728 807  0.6-  0.4-    240730 F51  0.1-  0.2-
240727 F51  0.8+  1.4-    240728 807  0.5-  0.2-
Ephemeris:
2024 OA1                 a,e,i = 1.18, 0.05, 10                  q = 1.1184
Date    TT    R. A. (2000) Decl.     Delta      r    Elong.  Phase     V
2024 07 01    22 24 14.5 -44 00 47   0.1739  1.1364   130.0    43.2    22.9
...
2024 07 16    22 13 28.2 -35 12 43   0.1345  1.1282   144.2    31.8    22.0
...
2024 07 24    21 57 22.6 -27 50 06   0.1188  1.1247   155.1    22.3    21.4
...
2024 07 30    21 41 36.7 -20 52 17   0.1109  1.1226   164.8    13.8    21.0
2024 07 31    21 38 46.0 -19 36 29   0.1099  1.1223   166.4    12.3    20.9
2024 08 01    21 35 52.8 -18 19 17   0.1091  1.1220   168.0    10.8    20.8
...
2024 08 07    21 18 10.2 -10 17 58   0.1069  1.1204   173.4     5.9    20.6
...
2024 08 15    20 55 57.0 +00 05 54   0.1109  1.1190   162.3    16.0    21.0
...
2024 08 30    20 27 46.7 +14 10 49   0.1358  1.1186   141.0    34.6    22.0
M. P. C. Staff               (C) Copyright 2024 MPC           M.P.E.C. 2024-O106
    
    
More information about the Iaude
mailing list